Regional Weather Roundup
Issued by NWS Mobile, AL

Home | Current Version | Previous Version | Text Only | Print | Product List | Glossary On
Versions: 1 2 3 4 5 6 7 8 9 10 11 12 13 14 15 16 17 18 19 20 21 22 23 24 25 26 27 28 29 30 31 32 33 34 35 36 37 38 39 40 41 42 43 44 45 46 47 48 49 50
769
ASUS44 KMOB 221013
RWRMOB
REGIONAL WEATHER ROUNDUP
NATIONAL WEATHER SERVICE MOBILE AL
500 AM CDT SUN APR 22 2018

NOTE: "FAIR" INDICATES FEW OR NO CLOUDS BELOW 12,000 FEET WITH NO
      SIGNIFICANT WEATHER AND/OR OBSTRUCTIONS TO VISIBILITY.

  * THESE STATIONS ARE PART OF THE UNIVERSITY OF SOUTH ALABAMA
    MESONET AND ARE NOT UNDER NWS OR FAA QUALITY CONTROL.

ALZ061>064-221100-
COASTAL ALABAMA

CITY           SKY/WX    TMP DP  RH WIND       PRES   REMARKS
MOBILE REG APT MOCLDY    67  64  90 E14       30.01F
BROOKLEY FIELD FAIR      68  66  93 E7        30.02F
USA CAMPUS*    NOT AVBL
DOG RIVER*     NOT AVBL


CITY           SKY/WX    TMP DP  RH WIND       PRES   REMARKS
GULF SHORES    CLOUDY    68  66  94 E10G16    30.02F

$$

ALZ051>060-221100-
INTERIOR SOUTHWEST AND SOUTH CENTRAL ALABAMA

CITY           SKY/WX    TMP DP  RH WIND       PRES   REMARKS
GREENVILLE     CLOUDY    66  58  75 SE9       30.08S
EVERGREEN      CLOUDY    67  61  81 E8        30.07F
ATMORE*          N/A    N/A N/A N/A E7        30.75F
ANDALUSIA/OPP  CLOUDY    69  61  75 E8        30.08S
ANDALUSIA*     NOT AVBL
FLORALA APT    CLOUDY    65  60  84 E7        30.10S
FLORALA*       NOT AVBL

$$

FLZ001>006-221100-
WESTERN FLORIDA PANHANDLE

CITY           SKY/WX    TMP DP  RH WIND       PRES   REMARKS
PENSACOLA      CLOUDY    70  64  81 E10       30.04S
NAS PENSACOLA  CLOUDY    70  65  84 E13       30.02F
MILTON         CLOUDY    66  64  93 E8        30.05F
WHTNG S FIELD  CLOUDY    66  64  93 E8        30.05F


CITY           SKY/WX    TMP DP  RH WIND       PRES   REMARKS
JAY*           NOT AVBL
DUKE FIELD     MOCLDY    66  61  82 E3        30.06S
CRESTVIEW      CLOUDY    66  61  84 E7        30.08S
VALPARAISO     MOCLDY    68  64  85 E16       30.04F
DESTIN         CLOUDY    72  63  73 E9        30.05S

$$

MSZ076-079-221100-
INTERIOR SOUTHEAST MISSISSIPPI

CITY           SKY/WX    TMP DP  RH WIND       PRES   REMARKS
LEAKESVILLE*   NOT AVBL
AGRICOLA*        N/A     63  63 100 CALM      30.00

$$

MARINE OBSERVATIONS

STATION/POSITION TIME  TEMP    WIND        PRES    WAVE
                       AIR SEA DIR/SP/G            HT/PER
                 (UTC) (F)     (DEG/KT/KT) (MB)    (FT/S)
PETIT BOIS ISLND 0948   68     110/  9/ 13 1016.2F
GRAND BAY        0830   67      70/  5     1017.0F
KATRINA CUT      0930   69     120/ 10     1015.9F
CEDAR POINT      0930   69     120/ 11       N/A
E DAUPHIN ISLAND 1000   69     100/ 14/ 15 1015.6F
MIDDLE BAY LIGHT 0930   67      80/  7     1016.6F
USCG MOBILE BAY  0948   66 68   90/  5/  6 1016.2F
STATE DOCKS      0948   66 65              1016.2F
MEAHER PARK      0930   67     100/  4     1016.9F
WEEKS BAY        0845   66                 1017.0S
FORT MORGAN      0948   69     110/ 16/ 18   N/A
12 S ORANGE BCH  0950   70     100/  6/  8 1016.7F   3/ 6
PENSACOLA BAY    0948   69 71   90/  3/  7 1017.2F
64 S DAUPHIN ISL 0950      71  110/  8/ 10 1016.0F   3/ 7
67 S FORT MORGAN 0930   70                 1015.9F

$$

SELECTED LOCATIONS ACROSS THE REGION

CITY           SKY/WX    TMP DP  RH WIND       PRES   REMARKS
NEW ORLEANS    LGT RAIN  70  68  93 SE10      29.96R
GULFPORT       CLOUDY    70  67  90 SE10      29.97F FOG
PASCAGOULA AP  CLOUDY    66  64  93 E3        29.99F FOG
PASCAGOULA*    NOT AVBL
HATTIESBURG    CLOUDY    65  64  97 SE8       29.99S
LAUREL         CLOUDY    64  63  96 SE9       30.00S
MERIDIAN       CLOUDY    66  59  78 E8        30.01F
JACKSON        CLOUDY    62  59  90 S3        29.98F
MONTGOMERY     CLOUDY    65  60  84 E13       30.11S
TROY           LGT RAIN  64  60  87 E9        30.12R
ASHFORD*       NOT AVBL
DOTHAN         CLOUDY    65  59  81 E7G18     30.14R
PANAMA CITY    CLOUDY    69  63  81 E3        30.07R

$$





USA.gov is the U.S. government's official web portal to all federal, state and local government web resources and services.